sat.trackr.live / text

‹ back to catalog

STARLINK-1944

NORAD 46796 · 2020-074BK

PAYLOAD ACTIVE UNKNOWN

§ Identity

Operator
Country
US
Launch date
2020-10-24
Launch site
AFETR
Launch vehicle
Mass (kg)
RCS (m²)

Purposes: comms

External: N2YO · Heavens-Above · Gunter

§ Orbital elements

Epoch: 2026-07-05T19:55:32.155392Z

Period
87.73 min
Inclination
53.0179°
Eccentricity
0.0010092
Mean motion
16.41340234 rev/d
Perigee alt
155.6 km
Apogee alt
168.8 km
Semi-major
6,540.4 km
B*
6.4605e-4
RAAN
36.4773°
Arg perigee
270.9482°
Mean anomaly
89.0409°
Rev number
31,608

§ Raw data

STARLINK-19441 46796U 20074BK  26186.83023328  .10797741  12403-4  64605-3 0  99912 46796  53.0179  36.4773 0010092 270.9482  89.0409 16.41340234316089

JSON: /api/v1/satellites/46796 · /tle

For live sub-satellite position, see the globe view (requires WebGL).

§ Visibility from observer

Set your observer location to see the next 7 days of passes ≥ 10°. The values pass through the URL so the page stays shareable.

No JS? Fill the form by hand. The geolocation button needs JavaScript.